Weather History for Lafayette, LA

Change the Weather History Date:

Wednesday, June 19, 2013

  Actual Average Record
Temperature  
Mean Temperature 80 °F 82 °F  
Max Temperature 86 °F 91 °F 100 °F (1953)
Min Temperature 74 °F 73 °F 60 °F (1899)
Cooling Degree Days 15 17  
Month to date cooling degree days 332 305  
Year to date cooling degree days 796 919  
Since 1 June cooling degree days 332 305  
Growing Degree Days 30 (Base 50)    
Moisture  
Dew Point 73 °F    
Average Humidity 80    
Maximum Humidity 94    
Minimum Humidity 65    
Precipitation  
Precipitation 0.49 in 0.26 in 5.71 in (1961)
Month to date precipitation 2.64 4.27  
Year to date precipitation 34.76 26.89  
Sea Level Pressure  
Sea Level Pressure 30.01 in    
Wind  
Wind Speed 2 mph (NE)    
Max Wind Speed 12 mph    
Max Gust Speed 14 mph    
Visibility 8 miles    
Events Fog , Rain    
T = Trace of Precipitation, MM = Missing Value Source: NWS Daily Summary

Daily Weather History Graph

Daily Weather History Graph

Search for Another Location

Airport:

Trip Planner

Search our weather history database for the weather conditions in past years. The results will help you decide how hot, cold, wet, or windy it might be!

Date:

Astronomy

Jun. 19, 2013 Rise Set
Actual Time 6:06 AM CDT 8:12 PM CDT
Civil Twilight 5:38 AM CDT 8:39 PM CDT
Nautical Twilight 5:05 AM CDT 9:13 PM CDT
Astronomical Twilight 4:29 AM CDT 9:49 PM CDT
Moon 4:16 PM CDT (6/19) 2:38 AM CDT (6/19)
Length of Visible Light 15h 00m
Length of Day
14h 05m
Waxing Gibbous, 80% of the Moon is Illuminated
Jun 19
Waxing Gibbous
Jun 23
Full
Jun 29
Last Quarter
Jul 8
New
Jul 15
First Quarter

Hourly Weather History & Observations

Time (CDT) Temp. Heat Index Dew Point Humidity Pressure Visibility Wind Dir Wind Speed Gust Speed Precip Events Conditions
12:53 AM 73.9 °F - 70.0 °F 87% 29.97 in 10.0 mi SSE 3.5 mph - N/A   Clear
1:53 AM 75.0 °F - 70.0 °F 84% 29.97 in 10.0 mi Calm Calm - N/A   Partly Cloudy
2:53 AM 75.0 °F - 71.1 °F 87% 29.95 in 10.0 mi Calm Calm - 0.00 in   Partly Cloudy
3:53 AM 75.9 °F - 71.1 °F 85% 29.95 in 10.0 mi South 3.5 mph - N/A   Clear
4:53 AM 75.0 °F - 71.1 °F 87% 29.96 in 10.0 mi Calm Calm - N/A   Clear
5:53 AM 75.0 °F - 71.1 °F 87% 29.96 in 10.0 mi North 3.5 mph - N/A   Mostly Cloudy
6:53 AM 75.0 °F - 71.1 °F 87% 29.99 in 10.0 mi NNE 4.6 mph - N/A   Overcast
7:53 AM 75.0 °F - 72.0 °F 90% 30.01 in 10.0 mi NNE 3.5 mph - 0.02 in   Mostly Cloudy
8:50 AM 75.2 °F - 73.4 °F 94% 30.01 in 10.0 mi Calm Calm - N/A   Mostly Cloudy
8:53 AM 75.9 °F - 73.0 °F 91% 30.01 in 10.0 mi NE 3.5 mph - N/A   Mostly Cloudy
9:07 AM 75.2 °F - 73.4 °F 94% 30.01 in 10.0 mi ENE 3.5 mph - N/A   Mostly Cloudy
9:15 AM 77.0 °F - 73.4 °F 89% 30.02 in 10.0 mi ENE 3.5 mph - N/A   Mostly Cloudy
9:27 AM 77.0 °F - 73.4 °F 89% 30.03 in 10.0 mi ENE 4.6 mph - N/A   Mostly Cloudy
9:44 AM 77.0 °F - 73.4 °F 89% 30.03 in 2.5 mi NNE 4.6 mph - 0.07 in   Mostly Cloudy
9:47 AM 75.2 °F - 73.4 °F 94% 30.03 in 0.8 mi NE 10.4 mph - 0.23 in Rain Heavy Rain
9:53 AM 75.0 °F - 72.0 °F 90% 30.03 in 0.5 mi North 4.6 mph - 0.28 in Fog , Rain Heavy Rain
9:56 AM 75.2 °F - 71.6 °F 89% 30.03 in 1.0 mi North 5.8 mph - 0.00 in Rain Light Rain
9:59 AM 75.2 °F - 73.4 °F 94% 30.03 in 3.0 mi NNW 11.5 mph - 0.00 in Rain Light Rain
10:53 AM 75.0 °F - 72.0 °F 90% 30.04 in 10.0 mi Variable 5.8 mph - 0.03 in   Mostly Cloudy
11:01 AM 75.2 °F - 73.4 °F 94% 30.04 in 10.0 mi NE 5.8 mph - N/A   Overcast
11:48 AM 75.2 °F - 71.6 °F 89% 30.06 in 10.0 mi ENE 3.5 mph - 0.01 in Rain Light Rain
11:53 AM 75.9 °F - 72.0 °F 87% 30.05 in 10.0 mi ENE 5.8 mph - 0.01 in Rain Light Rain
12:12 PM 75.2 °F - 73.4 °F 94% 30.05 in 10.0 mi Calm Calm - 0.00 in   Overcast
12:35 PM 75.2 °F - 71.6 °F 89% 30.05 in 1.8 mi North 5.8 mph - 0.08 in Rain Heavy Rain
12:48 PM 75.2 °F - 71.6 °F 89% 30.04 in 3.0 mi NE 5.8 mph - 0.15 in Rain Light Rain
12:53 PM 75.9 °F - 72.0 °F 87% 30.04 in 10.0 mi NE 6.9 mph - 0.15 in Rain Light Rain
1:53 PM 80.1 °F 84.5 °F 73.9 °F 81% 30.02 in 10.0 mi Calm Calm - 0.00 in   Clear
2:53 PM 84.0 °F 90.2 °F 73.0 °F 69% 30.00 in 10.0 mi Calm Calm - N/A   Partly Cloudy
3:53 PM 82.9 °F 89.4 °F 73.9 °F 74% 30.00 in 10.0 mi NE 3.5 mph - N/A   Partly Cloudy
4:53 PM 82.9 °F 89.4 °F 73.9 °F 74% 30.00 in 10.0 mi Calm Calm - N/A   Partly Cloudy
5:53 PM 86.0 °F 93.0 °F 73.0 °F 65% 29.99 in 10.0 mi North 3.5 mph - N/A   Clear
6:53 PM 82.9 °F 89.4 °F 73.9 °F 74% 29.99 in 10.0 mi Calm Calm - N/A   Partly Cloudy
7:53 PM 81.0 °F 86.2 °F 73.9 °F 79% 29.99 in 10.0 mi Calm Calm - N/A   Clear
8:53 PM 79.0 °F - 73.9 °F 84% 30.00 in 10.0 mi Calm Calm - N/A   Clear
9:53 PM 78.1 °F - 73.9 °F 87% 30.02 in 10.0 mi Calm Calm - N/A   Clear
10:53 PM 77.0 °F - 73.9 °F 90% 30.02 in 10.0 mi Calm Calm - N/A   Clear
11:53 PM 77.0 °F - 73.9 °F 90% 30.03 in 10.0 mi Calm Calm - N/A   Clear